This is the latest recevied weather packets stored in our database for station/object SQ6RR-12. If no packets are shown the sender has not sent any weather packets the latest 10 day(s).
| Time | Temp. | Humidity | Pressure | Rain* | Wind** | Luminosity | Snow |
|---|---|---|---|---|---|---|---|
| 1777618493 | 14.44° C | 42% | 1029.7 hPa | 0 mm | - | - | - |
| 1777618207 | 15° C | 43% | 1029.6 hPa | 0 mm | - | - | - |
| 1777617933 | 14.44° C | 45% | 1029.6 hPa | 0 mm | - | - | - |
| 1777617647 | 14.44° C | 46% | 1029.7 hPa | 0 mm | - | - | - |
| 1777617382 | 14.44° C | 49% | 1029.7 hPa | 0 mm | - | - | - |
| 1777617103 | 14.44° C | 49% | 1029.7 hPa | 0 mm | - | - | - |
| 1777616843 | 14.44° C | 51% | 1029.7 hPa | 0 mm | - | - | - |
| 1777616593 | 13.89° C | 54% | 1029.6 hPa | 0 mm | - | - | - |
| 1777616337 | 14.44° C | 55% | 1029.6 hPa | 0 mm | - | - | - |
| 1777616067 | 14.44° C | 61% | 1029.6 hPa | 0 mm | - | - | - |
| 1777615802 | 13.89° C | 84% | 1029.7 hPa | 0 mm | - | - | - |
| 1777615551 | 13.33° C | 10% | 1029.6 hPa | 0 mm | - | - | - |
| 1777615293 | 11.67° C | 10% | 1029.5 hPa | 0 mm | - | - | - |
| 1777615010 | 10° C | 10% | 1029.6 hPa | 0 mm | - | - | - |
| 1777614745 | 7.78° C | 10% | 1029.6 hPa | 0 mm | - | - | - |
| 1777614476 | 6.11° C | 10% | 1029.6 hPa | 0 mm | - | - | - |
| 1777614213 | 5.56° C | 10% | 1029.6 hPa | 0 mm | - | - | - |
| 1777613955 | 5.56° C | 10% | 1029.5 hPa | 0 mm | - | - | - |
| 1777613672 | 5° C | 10% | 1029.6 hPa | 0 mm | - | - | - |
| 1777613423 | 4.44° C | 10% | 1029.5 hPa | 0 mm | - | - | - |
| 1777613151 | 3.89° C | 10% | 1029.5 hPa | 0 mm | - | - | - |
| 1777612896 | 3.33° C | 10% | 1029.5 hPa | 0 mm | - | - | - |
| 1777612633 | 3.33° C | 10% | 1029.5 hPa | 0 mm | - | - | - |
| 1777612373 | 2.78° C | 10% | 1029.5 hPa | 0 mm | - | - | - |
| 1777612113 | 2.78° C | 10% | 1029.5 hPa | 0 mm | - | - | - |
* Rain latest hour (hover to see other rain measurements)
** Current wind speed in m/s (hover to see current wind gust speed)